[[{"header":{"parameterUnit":"m.s-1","parameterCategory":1,"la1":30.2991,"la2":30.254,"lo1":-89.0895,"lo2":-89.0444,"dy":0.0017,"dx":0.0017,"nx":28,"ny":28,"refTime":"2024-02-15T09:00:00:Z","depth":0,"parameterNumber":2,"parameterNumberName":"U-component_of_WINDS"},"data":[0,0,0,0,0,0,0,0,0,0,0,0,0,0,0,0,0,0,0,0,0,0,0,0,0,0,0,0,0,0,0,0,0,0,0,0,0,0,0,0,0,0,0,0,0,0,0,0,0,0,0,0,0,0,0,0,0,0,-0.2557,-0.2557,0,-0.2571,-0.2571,-0.2571,-0.259,-0.259,-0.259,-0.2591,-0.2605,-0.2605,-0.2605,0,0,0,0,0,0,0,0,0,0,0,0,0,-0.2546,-0.2546,-0.2557,-0.2557,-0.2557,-0.2571,-0.2571,-0.2572,-0.259,-0.259,-0.259,-0.2591,-0.2605,-0.2605,-0.2605,0,0,0,0,0,0,0,0,0,0,0,0,0,-0.2554,-0.2546,-0.2557,-0.2568,-0.2569,-0.2571,-0.2571,-0.2572,-0.259,-0.259,-0.2591,-0.2591,-0.2605,-0.2605,-0.2605,-0.2597,0,0,-0.2606,-0.2606,0,0,0,0,0,0,0,0,-0.2554,-0.2555,-0.2566,-0.2567,-0.2569,-0.2579,-0.2573,-0.258,-0.259,-0.2582,-0.2591,-0.2591,-0.2596,-0.2597,-0.2599,-0.2598,-0.2599,-0.2606,-0.2606,-0.2606,-0.2606,0,0,0,0,0,0,0,-0.2553,-0.2554,-0.2563,-0.2566,-0.2568,-0.2572,-0.2574,-0.2574,-0.2586,-0.2583,-0.2584,-0.2585,-0.2597,-0.2598,-0.2599,-0.2599,-0.2606,-0.2606,-0.2606,-0.2606,-0.2593,-0.2593,0,0,0,0,0,0,-0.2551,-0.2554,-0.2562,-0.2563,-0.2562,-0.2572,-0.2574,-0.2575,-0.2586,-0.2588,-0.2585,-0.2586,-0.2598,-0.2599,-0.26,-0.2591,-0.2606,-0.2606,-0.2606,-0.2593,-0.2593,-0.2592,0,0,0,0,0,0,-0.2551,-0.2552,-0.2562,-0.2559,-0.256,-0.2572,-0.2573,-0.2575,-0.2577,-0.2588,-0.259,-0.2584,-0.2598,-0.2599,-0.2598,-0.2592,-0.2606,-0.2606,-0.2594,-0.2593,-0.2593,-0.2575,0,0,0,0,0,0,-0.255,-0.2551,-0.2548,-0.2559,-0.256,-0.2559,-0.2573,-0.2575,-0.2577,-0.2579,-0.2588,-0.259,-0.2599,-0.2598,-0.2598,-0.2593,-0.2606,-0.2594,-0.2594,-0.2593,-0.2576,-0.2573,-0.2571,0,0,0,0,0,-0.255,-0.2543,-0.2548,-0.2549,-0.2557,-0.2559,-0.256,-0.257,-0.2577,-0.2574,-0.2581,-0.259,-0.2593,-0.2597,-0.2598,-0.2592,-0.2595,-0.2594,-0.2593,-0.2577,-0.2574,-0.2572,0,0,0,0,0,0,-0.2531,-0.2544,-0.255,-0.2546,-0.2551,-0.2562,-0.2559,-0.2567,-0.257,-0.2572,-0.2584,-0.2586,-0.2583,-0.2588,-0.2592,-0.2586,-0.2595,-0.2594,-0.2583,-0.258,-0.2578,-0.2577,-0.2606,0,0,0,0,0,-0.2527,-0.2527,-0.2539,-0.2534,-0.2536,-0.2547,-0.2548,-0.2556,-0.2561,-0.2564,-0.2571,-0.2576,-0.2578,-0.2579,-0.2582,-0.2577,-0.2579,-0.2573,-0.2571,-0.2569,-0.2568,-0.2566,-0.2564,-0.2589,-0.2589,-0.2589,0,0,-0.2517,-0.2524,-0.2524,-0.253,-0.2535,-0.2536,-0.2549,-0.2548,-0.2549,-0.2564,-0.2563,-0.2568,-0.2575,-0.2572,-0.257,-0.2575,-0.2562,-0.2568,-0.2566,-0.2567,-0.2565,-0.2563,-0.2561,-0.2588,-0.2589,-0.2589,0,0,-0.25,-0.2505,-0.2502,-0.2507,-0.2514,-0.2522,-0.2521,-0.2531,-0.2535,-0.2534,-0.2545,-0.2546,-0.255,-0.2554,-0.2557,-0.2542,-0.2551,-0.2543,-0.2531,-0.2529,-0.2527,-0.2526,-0.2521,-0.2519,-0.2542,-0.2542,-0.2542,0,-0.2487,-0.2489,-0.25,-0.2499,-0.2502,-0.2515,-0.2512,-0.2516,-0.2524,-0.2525,-0.2531,-0.2536,-0.2541,-0.254,-0.2536,-0.2538,-0.2537,-0.2542,-0.2527,-0.2525,-0.2524,-0.2519,-0.2517,-0.2541,-0.2541,-0.2541,-0.2541,0,-0.2473,-0.2473,-0.247,-0.2477,-0.248,-0.2478,-0.2489,-0.249,-0.2497,-0.2504,-0.2503,-0.251,-0.2515,-0.2515,-0.2522,-0.2514,-0.2517,-0.2524,-0.2534,-0.252,-0.2516,-0.2515,-0.2539,-0.254,-0.254,-0.254,0,0,-0.2444,-0.2458,-0.2456,-0.246,-0.247,-0.247,-0.2469,-0.2474,-0.2475,-0.248,-0.2479,-0.2482,-0.2489,-0.2492,-0.25,-0.2498,-0.2487,-0.2506,-0.2506,-0.2502,-0.2479,-0.2473,-0.2471,-0.2492,-0.2492,-0.2492,-0.2479,0,-0.2429,-0.2428,-0.2438,-0.2434,-0.2435,-0.2448,-0.2447,-0.2453,-0.246,-0.2462,-0.2469,-0.2471,-0.248,-0.2482,-0.2481,-0.2488,-0.2482,-0.2489,-0.2492,-0.2492,-0.249,-0.2469,-0.2463,-0.245,-0.2477,-0.2477,-0.2477,0,-0.2411,-0.2415,-0.2412,-0.2422,-0.2422,-0.2421,-0.2427,-0.2428,-0.2435,-0.244,-0.2444,-0.2453,-0.2453,-0.2462,-0.2462,-0.2467,-0.2469,-0.2473,-0.2473,-0.2473,-0.2483,-0.2469,-0.2446,-0.2444,-0.2474,-0.2474,-0.2474,0,-0.2391,-0.2396,-0.2394,-0.2397,-0.2409,-0.2408,-0.2412,-0.242,-0.2422,-0.2427,-0.2428,-0.2433,-0.2435,-0.2439,-0.2449,-0.2455,-0.2448,-0.2458,-0.2453,-0.2452,-0.245,-0.245,-0.2428,-0.2451,-0.2451,-0.2451,-0.2452,0,-0.2373,-0.237,-0.2385,-0.2384,-0.2382,-0.2394,-0.2391,-0.2397,-0.2404,-0.2405,-0.2416,-0.2417,-0.243,-0.2432,-0.244,-0.2439,-0.244,-0.2444,-0.2446,-0.2443,-0.2443,-0.2445,-0.2446,-0.2451,-0.2451,-0.2451,-0.2451,0,-0.235,-0.236,-0.2359,-0.237,-0.2373,-0.2371,-0.238,-0.238,-0.2388,-0.2388,-0.2389,-0.2401,-0.2404,-0.2415,-0.242,-0.2425,-0.2422,-0.2426,-0.242,-0.2421,-0.2415,-0.2416,-0.2393,-0.2391,-0.2415,-0.2415,-0.2415,0,-0.2338,-0.2336,-0.2347,-0.2348,-0.2353,-0.2355,-0.2357,-0.2369,-0.2371,-0.2379,-0.2378,-0.2382,-0.2386,-0.239,-0.2399,-0.2404,-0.2408,-0.24,-0.2409,-0.2406,-0.2408,-0.2408,-0.2409,-0.2398,-0.2398,-0.2397,-0.2397,0,-0.2315,-0.232,-0.2324,-0.2329,-0.2331,-0.2336,-0.2341,-0.2341,-0.2355,-0.2356,-0.236,-0.2363,-0.2369,-0.2373,-0.2379,-0.2384,-0.2393,-0.2394,-0.2393,-0.239,-0.2386,-0.2389,-0.2415,-0.2395,-0.2395,-0.2395,-0.2395,-0.2395,-0.2298,-0.2297,-0.2305,-0.2308,-0.2313,-0.2318,-0.2318,-0.2326,-0.2329,-0.2335,-0.2341,-0.2344,-0.2352,-0.2361,-0.2365,-0.2368,-0.2373,-0.2371,-0.2371,-0.237,-0.2369,-0.2386,-0.2369,-0.2369,-0.2369,-0.2369,-0.2369,0,-0.2276,-0.2282,-0.2285,-0.2292,-0.2294,-0.2303,-0.2309,-0.2311,-0.2313,-0.2319,-0.2323,-0.2327,-0.2331,-0.234,-0.2345,-0.2346,-0.235,-0.2346,-0.2347,-0.2348,-0.2364,-0.2364,-0.2343,-0.2343,-0.2343,-0.2343,-0.2343,-0.2343,-0.2265,-0.2264,-0.2271,-0.2273,-0.2279,-0.2281,-0.2284,-0.2289,-0.2294,-0.2298,-0.2302,-0.2308,-0.2316,-0.2321,-0.2326,-0.2328,-0.233,-0.2325,-0.2329,-0.2344,-0.2347,-0.2349,-0.235,-0.2325,-0.2325,-0.2313,-0.2313,-0.2313]},{"header":{"parameterUnit":"m.s-1","parameterCategory":1,"la1":30.2991,"la2":30.254,"lo1":-89.0895,"lo2":-89.0444,"dy":0.0017,"dx":0.0017,"nx":28,"ny":28,"refTime":"2024-02-15T09:00:00:Z","depth":0,"parameterNumber":3,"parameterNumberName":"V-component_of_WINDS"},"data":[0,0,0,0,0,0,0,0,0,0,0,0,0,0,0,0,0,0,0,0,0,0,0,0,0,0,0,0,0,0,0,0,0,0,0,0,0,0,0,0,0,0,0,0,0,0,0,0,0,0,0,0,0,0,0,0,0,0,-0.3351,-0.3351,0,-0.3326,-0.3325,-0.3325,-0.3357,-0.3358,-0.3359,-0.336,-0.3336,-0.3334,-0.3332,0,0,0,0,0,0,0,0,0,0,0,0,0,-0.3429,-0.3427,-0.3351,-0.3351,-0.3351,-0.3326,-0.3325,-0.3325,-0.3357,-0.3358,-0.3359,-0.3361,-0.3336,-0.3334,-0.3332,0,0,0,0,0,0,0,0,0,0,0,0,0,-0.3399,-0.3427,-0.3351,-0.3363,-0.3364,-0.3326,-0.3325,-0.3325,-0.3356,-0.3358,-0.336,-0.3361,-0.3337,-0.3334,-0.3332,-0.3281,0,0,-0.3324,-0.3323,0,0,0,0,0,0,0,0,-0.34,-0.3396,-0.3362,-0.3362,-0.3363,-0.3346,-0.3344,-0.331,-0.3356,-0.3359,-0.336,-0.3362,-0.3338,-0.3335,-0.3327,-0.328,-0.3279,-0.3324,-0.3322,-0.3321,-0.332,0,0,0,0,0,0,0,-0.3402,-0.3397,-0.3341,-0.3361,-0.3362,-0.337,-0.3368,-0.3338,-0.3339,-0.3359,-0.3361,-0.3358,-0.3339,-0.3329,-0.3326,-0.3278,-0.3324,-0.3321,-0.332,-0.3319,-0.3187,-0.3185,0,0,0,0,0,0,-0.3403,-0.3398,-0.3342,-0.334,-0.3386,-0.3368,-0.3365,-0.335,-0.334,-0.334,-0.3356,-0.3359,-0.3333,-0.3329,-0.3326,-0.3264,-0.3321,-0.3318,-0.3317,-0.3189,-0.3187,-0.3185,0,0,0,0,0,0,-0.3404,-0.3397,-0.3343,-0.337,-0.3364,-0.3364,-0.3347,-0.3348,-0.3339,-0.3337,-0.3338,-0.3346,-0.3334,-0.3329,-0.3291,-0.3264,-0.3317,-0.3315,-0.3191,-0.3188,-0.3186,-0.3142,0,0,0,0,0,0,-0.3406,-0.3398,-0.3378,-0.3369,-0.3362,-0.3309,-0.3346,-0.3347,-0.3334,-0.3338,-0.3328,-0.3328,-0.3335,-0.3295,-0.3289,-0.3261,-0.3313,-0.3194,-0.319,-0.3187,-0.3146,-0.3138,-0.3131,0,0,0,0,0,-0.3409,-0.3368,-0.3377,-0.337,-0.3338,-0.3307,-0.3303,-0.3311,-0.3332,-0.3312,-0.3311,-0.3329,-0.3268,-0.3291,-0.3284,-0.3256,-0.3196,-0.3191,-0.3187,-0.3149,-0.314,-0.3131,0,0,0,0,0,0,-0.3374,-0.3367,-0.3377,-0.3331,-0.3319,-0.3312,-0.3288,-0.3301,-0.3283,-0.3288,-0.3299,-0.3297,-0.3256,-0.3252,-0.3278,-0.3205,-0.3235,-0.3229,-0.3209,-0.32,-0.3193,-0.3194,-0.3311,0,0,0,0,0,-0.3361,-0.3336,-0.3331,-0.3291,-0.3285,-0.3287,-0.3274,-0.3281,-0.327,-0.3265,-0.3262,-0.325,-0.3229,-0.3214,-0.3194,-0.3146,-0.3144,-0.3123,-0.3115,-0.3109,-0.3104,-0.3077,-0.3067,-0.317,-0.317,-0.3171,0,0,-0.3334,-0.3327,-0.331,-0.3284,-0.3276,-0.325,-0.3283,-0.3255,-0.3236,-0.3261,-0.3225,-0.3222,-0.321,-0.3166,-0.3146,-0.3161,-0.3075,-0.3104,-0.3099,-0.3097,-0.3072,-0.3062,-0.3053,-0.3168,-0.3168,-0.3169,0,0,-0.3271,-0.3263,-0.3228,-0.3219,-0.3206,-0.3207,-0.3199,-0.319,-0.3188,-0.3152,-0.317,-0.3148,-0.3111,-0.3101,-0.3091,-0.3024,-0.3039,-0.3017,-0.2979,-0.2952,-0.2944,-0.2937,-0.2912,-0.2903,-0.3012,-0.3012,-0.3012,0,-0.3239,-0.32,-0.3209,-0.3179,-0.3167,-0.3188,-0.3153,-0.3144,-0.3125,-0.3116,-0.3133,-0.3086,-0.3079,-0.3033,-0.3016,-0.3008,-0.2999,-0.3018,-0.2945,-0.2937,-0.2931,-0.2907,-0.2898,-0.3009,-0.301,-0.301,-0.301,0,-0.3161,-0.3134,-0.3108,-0.3088,-0.3073,-0.304,-0.3045,-0.3028,-0.3037,-0.3037,-0.2999,-0.2992,-0.297,-0.296,-0.2968,-0.2915,-0.2924,-0.2943,-0.2973,-0.2918,-0.2896,-0.2887,-0.3005,-0.3006,-0.3007,-0.3008,0,0,-0.3075,-0.306,-0.305,-0.3041,-0.3027,-0.3007,-0.2975,-0.2954,-0.2939,-0.2925,-0.2899,-0.2867,-0.2883,-0.2872,-0.288,-0.2857,-0.2802,-0.2878,-0.2878,-0.2863,-0.2742,-0.2727,-0.2717,-0.2812,-0.2811,-0.2809,-0.2742,0,-0.3012,-0.2956,-0.2963,-0.291,-0.2885,-0.2904,-0.2877,-0.2866,-0.2865,-0.2844,-0.2843,-0.2819,-0.2844,-0.2837,-0.2815,-0.2813,-0.2778,-0.2819,-0.2788,-0.2787,-0.2789,-0.2705,-0.269,-0.2627,-0.2734,-0.2733,-0.2731,0,-0.293,-0.2912,-0.2856,-0.2845,-0.2835,-0.281,-0.279,-0.277,-0.2757,-0.2758,-0.2745,-0.2757,-0.2725,-0.2756,-0.2713,-0.2741,-0.2729,-0.2726,-0.2724,-0.2721,-0.2755,-0.2699,-0.2607,-0.2598,-0.2718,-0.2719,-0.272,0,-0.2871,-0.2833,-0.2795,-0.2787,-0.2773,-0.2755,-0.2749,-0.2738,-0.2725,-0.2707,-0.2698,-0.2678,-0.2667,-0.2651,-0.2657,-0.2679,-0.2612,-0.2644,-0.2612,-0.2611,-0.2596,-0.2597,-0.25,-0.259,-0.259,-0.259,-0.259,0,-0.2799,-0.2764,-0.2768,-0.2745,-0.2706,-0.2714,-0.2676,-0.2672,-0.2662,-0.2638,-0.2654,-0.2631,-0.264,-0.2618,-0.2623,-0.2586,-0.2581,-0.258,-0.2582,-0.2578,-0.2578,-0.257,-0.2574,-0.2587,-0.2588,-0.2589,-0.2589,0,-0.2727,-0.2729,-0.2688,-0.2678,-0.2675,-0.2647,-0.2639,-0.2617,-0.2617,-0.2586,-0.258,-0.258,-0.2554,-0.2559,-0.2531,-0.2534,-0.2487,-0.2494,-0.2491,-0.2492,-0.2459,-0.2462,-0.2354,-0.234,-0.2439,-0.2438,-0.2437,0,-0.2681,-0.2654,-0.2641,-0.2626,-0.2618,-0.2593,-0.2579,-0.2586,-0.257,-0.2553,-0.2533,-0.2509,-0.249,-0.2449,-0.2447,-0.2425,-0.2432,-0.2395,-0.2429,-0.2426,-0.243,-0.2431,-0.2428,-0.2388,-0.2387,-0.2386,-0.2385,0,-0.2597,-0.2599,-0.2577,-0.2555,-0.2537,-0.2521,-0.2506,-0.2492,-0.2498,-0.248,-0.2453,-0.2439,-0.241,-0.2385,-0.2365,-0.2359,-0.2373,-0.2375,-0.2366,-0.2362,-0.2361,-0.236,-0.2472,-0.2377,-0.2378,-0.2379,-0.2379,-0.2379,-0.2536,-0.2513,-0.25,-0.2475,-0.2464,-0.2449,-0.2427,-0.2424,-0.2402,-0.2378,-0.2384,-0.2354,-0.2342,-0.2316,-0.2308,-0.2285,-0.2299,-0.2286,-0.2283,-0.2279,-0.2275,-0.2365,-0.2282,-0.2282,-0.2282,-0.2282,-0.2282,0,-0.2453,-0.2445,-0.2422,-0.24,-0.238,-0.2394,-0.2378,-0.236,-0.2333,-0.2321,-0.2301,-0.2271,-0.2247,-0.2243,-0.222,-0.2202,-0.2208,-0.2196,-0.2197,-0.2195,-0.2265,-0.2274,-0.2192,-0.2192,-0.2192,-0.2192,-0.2192,-0.2192,-0.2407,-0.2368,-0.2368,-0.2323,-0.2316,-0.2286,-0.2276,-0.2262,-0.2252,-0.2217,-0.2197,-0.2194,-0.2184,-0.2161,-0.214,-0.214,-0.213,-0.2115,-0.2117,-0.2182,-0.2191,-0.2199,-0.2208,-0.2114,-0.2113,-0.205,-0.2049,-0.2049]}]]